Location: The Saddle
(36.8333°N, 80.3417°W)
Time: 09:11:01
(UTC-05:00)

A-11 Canister half - Pass Details

Date: 12 December 2023
Orbit: 1526 x 1682 km, 47.3° (Epoch: 27 February)

Event Time Altitude Azimuth Distance (km) Brightness Sun altitude
Rises 22:42:14 0° 301° (WNW) 4,933 12.0 -65.7°
Enters shadow 22:45:25 10° 303° (WNW) 3,943 11.4 -66.3°
Reaches altitude 10° 22:45:26 10° 303° (WNW) 3,936 - -66.3°
Maximum altitude 22:55:35 76° 30° (NNE) 1,691 - -68.0°
Drops below altitude 10° 23:05:24 10° 116° (ESE) 3,824 - -69.6°
Sets 23:08:28 0° 117° (ESE) 4,787 - -70.1°
